GJOHN PADU-PADK

Flight info

Callsign GJOHN
Flight time 3h 25m
Altitude 8500
Route DUTCH HARBOR UNALASKA TAACHIM QALAA RED CINDER DOME MOUNT OKMOK NIKOSKI RIZON GANEF ATKA QANGLAAGIS UMAK ISLAND ADAK
Aircraft C182/L-VGDW/C

Departure

Time 2026-04-29 13:06
Airport Tom Madsen (Dutch Harbor) Airport (PADU)

Arrival

Time 2026-04-29 16:32
Airport Adak Airport (PADK)
Time Latitude Longitude Altitude Speed Heading
2026-04-29 13:00 53.89587 -166.54274 26 ft 0 kts
2026-04-29 13:02 53.89589 -166.54274 26 ft 2 kts
2026-04-29 13:02 53.89573 -166.54244 26 ft 5 kts 147°
2026-04-29 13:03 53.89564 -166.54163 26 ft 7 kts 128°
2026-04-29 13:03 53.89548 -166.54109 26 ft 6 kts 41°
2026-04-29 13:03 53.89597 -166.54035 26 ft 9 kts 12°
2026-04-29 13:03 53.89693 -166.54159 26 ft 24 kts 318°
2026-04-29 13:04 53.89831 -166.54365 26 ft 28 kts 316°
2026-04-29 13:04 53.89984 -166.54596 26 ft 31 kts 320°
2026-04-29 13:04 53.90136 -166.54806 26 ft 25 kts 319°
2026-04-29 13:04 53.90221 -166.54933 26 ft 7 kts 299°
2026-04-29 13:05 53.90204 -166.54932 26 ft 7 kts 128°
2026-04-29 13:05 53.90195 -166.54916 26 ft 0 kts 136°
2026-04-29 13:05 53.90074 -166.54729 26 ft 54 kts 138°
2026-04-29 13:05 53.89724 -166.54178 161 ft 76 kts 139°
2026-04-29 13:06 53.89316 -166.53522 382 ft 84 kts 147°
2026-04-29 13:06 53.88982 -166.53163 541 ft 85 kts 150°
2026-04-29 13:06 53.88480 -166.52602 773 ft 87 kts 161°
2026-04-29 13:06 53.87917 -166.52790 996 ft 88 kts 219°
2026-04-29 13:07 53.87747 -166.53787 1224 ft 98 kts 275°
2026-04-29 13:07 53.88131 -166.54783 1457 ft 104 kts 303°
2026-04-29 13:07 53.88541 -166.55784 1681 ft 102 kts 288°
2026-04-29 13:07 53.88736 -166.56870 1899 ft 99 kts 272°
2026-04-29 13:08 53.88835 -166.57962 2113 ft 101 kts 274°
2026-04-29 13:08 53.89310 -166.58893 2322 ft 115 kts 326°
2026-04-29 13:08 53.90125 -166.59013 2542 ft 121 kts
2026-04-29 13:08 53.90957 -166.58957 2771 ft 119 kts 352°
2026-04-29 13:09 53.91790 -166.58976 2996 ft 121 kts
2026-04-29 13:09 53.92578 -166.58485 3220 ft 121 kts 23°
2026-04-29 13:09 53.93343 -166.57843 3450 ft 124 kts 26°
2026-04-29 13:09 53.94117 -166.57166 3680 ft 126 kts 26°
2026-04-29 13:10 53.94901 -166.56475 3909 ft 128 kts 26°
2026-04-29 13:10 53.95692 -166.55779 4137 ft 129 kts 26°
2026-04-29 13:10 53.96486 -166.55080 4365 ft 129 kts 26°
2026-04-29 13:10 53.97287 -166.54385 4591 ft 129 kts 23°
2026-04-29 13:11 53.98148 -166.54089 4812 ft 126 kts 357°
2026-04-29 13:11 53.99014 -166.54091 5038 ft 124 kts 351°
2026-04-29 13:11 53.99870 -166.54166 5263 ft 123 kts 349°
2026-04-29 13:11 54.00719 -166.54258 5487 ft 122 kts 348°
2026-04-29 13:12 54.01563 -166.54356 5711 ft 121 kts 347°
2026-04-29 13:12 54.02399 -166.54454 5933 ft 120 kts 347°
2026-04-29 13:12 54.03218 -166.54597 6150 ft 115 kts 335°
2026-04-29 13:12 54.03758 -166.55380 6354 ft 95 kts 281°
2026-04-29 13:13 54.03746 -166.56401 6575 ft 85 kts 251°
2026-04-29 13:13 54.03686 -166.57431 6762 ft 89 kts 259°
2026-04-29 13:13 54.03696 -166.58502 6941 ft 92 kts 262°
2026-04-29 13:13 54.03732 -166.59594 7119 ft 93 kts 264°
2026-04-29 13:14 54.03776 -166.60700 7297 ft 94 kts 264°
2026-04-29 13:14 54.03824 -166.61811 7474 ft 94 kts 264°
2026-04-29 13:14 54.03873 -166.62925 7650 ft 95 kts 265°
2026-04-29 13:14 54.03923 -166.64042 7826 ft 95 kts 265°
2026-04-29 13:15 54.03972 -166.65154 8000 ft 94 kts 264°
2026-04-29 13:15 54.04021 -166.66265 8175 ft 94 kts 264°
2026-04-29 13:15 54.04070 -166.67365 8347 ft 93 kts 264°
2026-04-29 13:15 54.04117 -166.68467 8481 ft 97 kts 264°
2026-04-29 13:16 54.04167 -166.69684 8498 ft 108 kts 266°
2026-04-29 13:16 54.04225 -166.70966 8501 ft 109 kts 266°
2026-04-29 13:16 54.04284 -166.72276 8500 ft 110 kts 266°
2026-04-29 13:16 54.04342 -166.73578 8501 ft 111 kts 266°
2026-04-29 13:17 54.04399 -166.74887 8501 ft 111 kts 266°
2026-04-29 13:17 54.04456 -166.76198 8501 ft 111 kts 266°
2026-04-29 13:17 54.04357 -166.77457 8498 ft 106 kts 244°
2026-04-29 13:17 54.04055 -166.78593 8500 ft 105 kts 240°
2026-04-29 13:18 54.03730 -166.79704 8500 ft 105 kts 239°
2026-04-29 13:18 54.03397 -166.80807 8500 ft 105 kts 239°
2026-04-29 13:18 54.03061 -166.81909 8500 ft 105 kts 239°
2026-04-29 13:18 54.02722 -166.83010 8500 ft 105 kts 239°
2026-04-29 13:19 54.02384 -166.84108 8500 ft 105 kts 239°
2026-04-29 13:19 54.02044 -166.85208 8500 ft 105 kts 239°
2026-04-29 13:19 54.01705 -166.86306 8500 ft 105 kts 239°
2026-04-29 13:19 54.01365 -166.87403 8500 ft 105 kts 239°
2026-04-29 13:20 54.01021 -166.88515 8500 ft 105 kts 239°
2026-04-29 13:20 54.00681 -166.89613 8500 ft 105 kts 239°
2026-04-29 13:20 54.00341 -166.90708 8500 ft 105 kts 239°
2026-04-29 13:20 54.00001 -166.91806 8501 ft 105 kts 239°
2026-04-29 13:21 53.99660 -166.92906 8500 ft 106 kts 238°
2026-04-29 13:21 53.99317 -166.94010 8500 ft 106 kts 238°
2026-04-29 13:21 53.98974 -166.95117 8500 ft 106 kts 238°
2026-04-29 13:21 53.98629 -166.96225 8500 ft 106 kts 238°
2026-04-29 13:22 53.98285 -166.97334 8500 ft 106 kts 238°
2026-04-29 13:22 53.97940 -166.98442 8500 ft 106 kts 238°
2026-04-29 13:22 53.97596 -166.99550 8500 ft 106 kts 238°
2026-04-29 13:22 53.97250 -167.00661 8500 ft 106 kts 238°
2026-04-29 13:23 53.96905 -167.01770 8500 ft 106 kts 238°
2026-04-29 13:23 53.96555 -167.02894 8500 ft 107 kts 238°
2026-04-29 13:23 53.96208 -167.04005 8500 ft 107 kts 238°
2026-04-29 13:23 53.95862 -167.05116 8499 ft 107 kts 238°
2026-04-29 13:24 53.95516 -167.06225 8499 ft 107 kts 238°
2026-04-29 13:24 53.95170 -167.07335 8499 ft 107 kts 238°
2026-04-29 13:24 53.94822 -167.08447 8499 ft 107 kts 238°
2026-04-29 13:24 53.94476 -167.09557 8499 ft 107 kts 238°
2026-04-29 13:25 53.94129 -167.10667 8499 ft 107 kts 238°
2026-04-29 13:25 53.93435 -167.12885 8498 ft 107 kts 238°
2026-04-29 13:25 53.93088 -167.13996 8498 ft 107 kts 238°
2026-04-29 13:26 53.92740 -167.15105 8498 ft 107 kts 238°
2026-04-29 13:26 53.92393 -167.16215 8498 ft 107 kts 238°
2026-04-29 13:26 53.92040 -167.17340 8498 ft 107 kts 238°
2026-04-29 13:26 53.91693 -167.18448 8498 ft 107 kts 238°
2026-04-29 13:27 53.91345 -167.19555 8497 ft 107 kts 238°
2026-04-29 13:27 53.90998 -167.20663 8497 ft 107 kts 238°
2026-04-29 13:27 53.90650 -167.21770 8497 ft 107 kts 238°
2026-04-29 13:27 53.90303 -167.22877 8497 ft 107 kts 238°
2026-04-29 13:28 53.89954 -167.23985 8496 ft 107 kts 238°
2026-04-29 13:28 53.89607 -167.25091 8496 ft 107 kts 238°
2026-04-29 13:28 53.89259 -167.26198 8496 ft 107 kts 238°
2026-04-29 13:28 53.88910 -167.27306 8496 ft 107 kts 238°
2026-04-29 13:29 53.88562 -167.28411 8495 ft 107 kts 238°
2026-04-29 13:29 53.88213 -167.29518 8495 ft 107 kts 238°
2026-04-29 13:29 53.87865 -167.30625 8495 ft 107 kts 238°
2026-04-29 13:29 53.87512 -167.31745 8494 ft 107 kts 238°
2026-04-29 13:30 53.87163 -167.32850 8494 ft 107 kts 238°
2026-04-29 13:30 53.86814 -167.33957 8494 ft 107 kts 238°
2026-04-29 13:30 53.86465 -167.35060 8494 ft 107 kts 238°
2026-04-29 13:30 53.86116 -167.36167 8493 ft 107 kts 238°
2026-04-29 13:31 53.85767 -167.37273 8493 ft 107 kts 238°
2026-04-29 13:31 53.85418 -167.38377 8493 ft 107 kts 238°
2026-04-29 13:31 53.85069 -167.39480 8493 ft 107 kts 238°
2026-04-29 13:31 53.84719 -167.40585 8493 ft 107 kts 238°
2026-04-29 13:32 53.84370 -167.41688 8492 ft 107 kts 238°
2026-04-29 13:32 53.84020 -167.42794 8492 ft 107 kts 238°
2026-04-29 13:32 53.83670 -167.43897 8492 ft 107 kts 238°
2026-04-29 13:32 53.83320 -167.45003 8491 ft 107 kts 238°
2026-04-29 13:33 53.82965 -167.46120 8491 ft 107 kts 238°
2026-04-29 13:33 53.82615 -167.47225 8491 ft 107 kts 238°
2026-04-29 13:33 53.82264 -167.48331 8490 ft 107 kts 238°
2026-04-29 13:33 53.81912 -167.49440 8490 ft 107 kts 238°
2026-04-29 13:34 53.81559 -167.50551 8490 ft 107 kts 238°
2026-04-29 13:34 53.81206 -167.51661 8490 ft 107 kts 238°
2026-04-29 13:34 53.80852 -167.52773 8489 ft 107 kts 238°
2026-04-29 13:34 53.80499 -167.53885 8489 ft 107 kts 238°
2026-04-29 13:35 53.80146 -167.54994 8489 ft 107 kts 238°
2026-04-29 13:35 53.79791 -167.56107 8488 ft 107 kts 238°
2026-04-29 13:35 53.79437 -167.57218 8488 ft 108 kts 238°
2026-04-29 13:35 53.79083 -167.58330 8488 ft 108 kts 238°
2026-04-29 13:36 53.78729 -167.59441 8487 ft 108 kts 238°
2026-04-29 13:36 53.78370 -167.60565 8487 ft 108 kts 238°
2026-04-29 13:36 53.78015 -167.61679 8487 ft 108 kts 238°
2026-04-29 13:36 53.77660 -167.62788 8486 ft 108 kts 238°
2026-04-29 13:37 53.77306 -167.63899 8486 ft 108 kts 238°
2026-04-29 13:37 53.76950 -167.65010 8485 ft 108 kts 238°
2026-04-29 13:37 53.76595 -167.66120 8485 ft 108 kts 238°
2026-04-29 13:37 53.76240 -167.67230 8485 ft 108 kts 238°
2026-04-29 13:38 53.75885 -167.68339 8484 ft 108 kts 238°
2026-04-29 13:38 53.75530 -167.69448 8484 ft 108 kts 238°
2026-04-29 13:38 53.75174 -167.70559 8484 ft 108 kts 238°
2026-04-29 13:38 53.74818 -167.71670 8483 ft 108 kts 238°
2026-04-29 13:39 53.74463 -167.72779 8483 ft 108 kts 238°
2026-04-29 13:39 53.74103 -167.73901 8482 ft 108 kts 238°
2026-04-29 13:39 53.73747 -167.75009 8482 ft 108 kts 238°
2026-04-29 13:39 53.73391 -167.76118 8482 ft 108 kts 238°
2026-04-29 13:40 53.73035 -167.77226 8481 ft 108 kts 238°
2026-04-29 13:40 53.72679 -167.78335 8481 ft 108 kts 238°
2026-04-29 13:40 53.72322 -167.79444 8481 ft 108 kts 238°
2026-04-29 13:40 53.71966 -167.80552 8480 ft 108 kts 238°
2026-04-29 13:41 53.71609 -167.81661 8480 ft 108 kts 238°
2026-04-29 13:41 53.71252 -167.82769 8479 ft 108 kts 238°
2026-04-29 13:41 53.70895 -167.83876 8479 ft 108 kts 238°
2026-04-29 13:41 53.70539 -167.84984 8478 ft 108 kts 238°
2026-04-29 13:42 53.70182 -167.86091 8478 ft 108 kts 238°
2026-04-29 13:42 53.69825 -167.87196 8478 ft 108 kts 238°
2026-04-29 13:42 53.69463 -167.88318 8477 ft 108 kts 238°
2026-04-29 13:42 53.69105 -167.89426 8477 ft 108 kts 238°
2026-04-29 13:43 53.68749 -167.90531 8476 ft 108 kts 238°
2026-04-29 13:43 53.68391 -167.91637 8476 ft 108 kts 238°
2026-04-29 13:43 53.68032 -167.92746 8475 ft 108 kts 238°
2026-04-29 13:43 53.67675 -167.93851 8475 ft 108 kts 238°
2026-04-29 13:44 53.67318 -167.94956 8474 ft 108 kts 238°
2026-04-29 13:44 53.66959 -167.96063 8474 ft 108 kts 238°
2026-04-29 13:44 53.66602 -167.97167 8473 ft 108 kts 238°
2026-04-29 13:44 53.66243 -167.98273 8473 ft 108 kts 238°
2026-04-29 13:45 53.65885 -167.99379 8473 ft 108 kts 238°
2026-04-29 13:45 53.65526 -168.00484 8472 ft 108 kts 238°
2026-04-29 13:45 53.65168 -168.01588 8472 ft 108 kts 238°
2026-04-29 13:45 53.64809 -168.02694 8471 ft 108 kts 238°
2026-04-29 13:46 53.64446 -168.03812 8471 ft 108 kts 238°
2026-04-29 13:46 53.64087 -168.04917 8470 ft 108 kts 238°
2026-04-29 13:46 53.63728 -168.06020 8470 ft 108 kts 238°
2026-04-29 13:46 53.63369 -168.07125 8469 ft 108 kts 238°
2026-04-29 13:47 53.63009 -168.08230 8468 ft 108 kts 238°
2026-04-29 13:47 53.62650 -168.09335 8467 ft 108 kts 237°
2026-04-29 13:47 53.62290 -168.10439 8467 ft 108 kts 237°
2026-04-29 13:47 53.61930 -168.11542 8466 ft 108 kts 237°
2026-04-29 13:48 53.61570 -168.12649 8466 ft 108 kts 237°
2026-04-29 13:48 53.61210 -168.13753 8465 ft 108 kts 237°
2026-04-29 13:48 53.60849 -168.14858 8465 ft 108 kts 237°
2026-04-29 13:48 53.60488 -168.15963 8464 ft 108 kts 237°
2026-04-29 13:49 53.60127 -168.17069 8464 ft 108 kts 237°
2026-04-29 13:49 53.59762 -168.18187 8463 ft 108 kts 237°
2026-04-29 13:49 53.59400 -168.19292 8463 ft 108 kts 237°
2026-04-29 13:49 53.59039 -168.20397 8462 ft 108 kts 237°
2026-04-29 13:50 53.58677 -168.21504 8461 ft 108 kts 237°
2026-04-29 13:50 53.58316 -168.22606 8461 ft 108 kts 237°
2026-04-29 13:50 53.57954 -168.23711 8460 ft 108 kts 237°
2026-04-29 13:50 53.57592 -168.24814 8460 ft 108 kts 237°
2026-04-29 13:51 53.57229 -168.25919 8459 ft 108 kts 237°
2026-04-29 13:51 53.56867 -168.27024 8459 ft 108 kts 237°
2026-04-29 13:51 53.56504 -168.28127 8458 ft 108 kts 237°
2026-04-29 13:51 53.56142 -168.29230 8458 ft 108 kts 237°
2026-04-29 13:52 53.55778 -168.30333 8457 ft 108 kts 237°
2026-04-29 13:52 53.55414 -168.31437 8456 ft 108 kts 237°
2026-04-29 13:52 53.55049 -168.32539 8456 ft 108 kts 237°
2026-04-29 13:52 53.54684 -168.33661 8455 ft 108 kts 238°
2026-04-29 13:53 53.54333 -168.34777 8455 ft 108 kts 238°
2026-04-29 13:53 53.53981 -168.35892 8454 ft 108 kts 238°
2026-04-29 13:53 53.53628 -168.37006 8454 ft 108 kts 238°
2026-04-29 13:53 53.53275 -168.38118 8453 ft 108 kts 238°
2026-04-29 13:54 53.52921 -168.39232 8452 ft 108 kts 238°
2026-04-29 13:54 53.52566 -168.40346 8452 ft 108 kts 238°
2026-04-29 13:54 53.52212 -168.41459 8451 ft 108 kts 238°
2026-04-29 13:54 53.51857 -168.42572 8451 ft 108 kts 238°
2026-04-29 13:55 53.51503 -168.43685 8450 ft 108 kts 238°
2026-04-29 13:55 53.51148 -168.44797 8449 ft 108 kts 238°
2026-04-29 13:55 53.50793 -168.45910 8449 ft 108 kts 238°
2026-04-29 13:55 53.50433 -168.47038 8448 ft 108 kts 238°
2026-04-29 13:56 53.50078 -168.48152 8448 ft 108 kts 238°
2026-04-29 13:56 53.49722 -168.49264 8447 ft 108 kts 238°
2026-04-29 13:56 53.49367 -168.50377 8446 ft 108 kts 238°
2026-04-29 13:56 53.49011 -168.51489 8446 ft 108 kts 238°
2026-04-29 13:57 53.48655 -168.52601 8445 ft 108 kts 238°
2026-04-29 13:57 53.48299 -168.53715 8444 ft 108 kts 238°
2026-04-29 13:57 53.47944 -168.54825 8444 ft 108 kts 238°
2026-04-29 13:57 53.47708 -168.55561 8443 ft 108 kts 238°
2026-04-29 13:58 53.47231 -168.57050 8443 ft 108 kts 238°
2026-04-29 13:58 53.46875 -168.58160 8442 ft 108 kts 238°
2026-04-29 13:58 53.46518 -168.59272 8441 ft 108 kts 237°
2026-04-29 13:58 53.46162 -168.60383 8441 ft 108 kts 237°
2026-04-29 13:59 53.45804 -168.61497 8440 ft 108 kts 237°
2026-04-29 13:59 53.45563 -168.62246 8440 ft 108 kts 237°
2026-04-29 13:59 53.45206 -168.63360 8439 ft 108 kts 237°
2026-04-29 13:59 53.44849 -168.64471 8438 ft 108 kts 237°
2026-04-29 14:00 53.44491 -168.65582 8438 ft 108 kts 237°
2026-04-29 14:00 53.44133 -168.66695 8437 ft 108 kts 237°
2026-04-29 14:00 53.43776 -168.67806 8437 ft 108 kts 237°
2026-04-29 14:00 53.43419 -168.68915 8436 ft 108 kts 237°
2026-04-29 14:01 53.43060 -168.70029 8435 ft 108 kts 237°
2026-04-29 14:01 53.42703 -168.71137 8435 ft 108 kts 237°
2026-04-29 14:01 53.42339 -168.72265 8434 ft 109 kts 237°
2026-04-29 14:01 53.41979 -168.73379 8425 ft 109 kts 237°
2026-04-29 14:02 53.41618 -168.74500 8418 ft 109 kts 237°
2026-04-29 14:02 53.41257 -168.75618 8416 ft 109 kts 237°
2026-04-29 14:02 53.40896 -168.76735 8414 ft 109 kts 237°
2026-04-29 14:02 53.40534 -168.77854 8413 ft 109 kts 237°
2026-04-29 14:03 53.40172 -168.78974 8413 ft 109 kts 237°
2026-04-29 14:03 53.39811 -168.80092 8412 ft 109 kts 237°
2026-04-29 14:03 53.39449 -168.81211 8412 ft 109 kts 237°
2026-04-29 14:03 53.39086 -168.82330 8411 ft 110 kts 237°
2026-04-29 14:04 53.38723 -168.83451 8410 ft 110 kts 237°
2026-04-29 14:04 53.38360 -168.84573 8410 ft 110 kts 237°
2026-04-29 14:04 53.37996 -168.85693 8409 ft 110 kts 237°
2026-04-29 14:04 53.37633 -168.86813 8408 ft 110 kts 237°
2026-04-29 14:05 53.37269 -168.87933 8408 ft 110 kts 237°
2026-04-29 14:05 53.36901 -168.89069 8407 ft 110 kts 237°
2026-04-29 14:05 53.36537 -168.90189 8406 ft 110 kts 237°
2026-04-29 14:05 53.36173 -168.91310 8405 ft 110 kts 237°
2026-04-29 14:06 53.35809 -168.92429 8405 ft 110 kts 237°
2026-04-29 14:06 53.35445 -168.93548 8404 ft 110 kts 237°
2026-04-29 14:06 53.35080 -168.94669 8404 ft 110 kts 237°
2026-04-29 14:06 53.34716 -168.95788 8403 ft 110 kts 237°
2026-04-29 14:07 53.34351 -168.96907 8402 ft 110 kts 237°
2026-04-29 14:07 53.33986 -168.98026 8401 ft 110 kts 237°
2026-04-29 14:07 53.33622 -168.99145 8401 ft 110 kts 237°
2026-04-29 14:07 53.33257 -169.00264 8400 ft 110 kts 237°
2026-04-29 14:08 53.32891 -169.01384 8399 ft 110 kts 237°
2026-04-29 14:08 53.32521 -169.02516 8399 ft 110 kts 237°
2026-04-29 14:08 53.32161 -169.03621 8398 ft 110 kts 237°
2026-04-29 14:08 53.31790 -169.04755 8397 ft 110 kts 237°
2026-04-29 14:09 53.31425 -169.05873 8397 ft 110 kts 237°
2026-04-29 14:09 53.31058 -169.06992 8396 ft 110 kts 237°
2026-04-29 14:09 53.30693 -169.08110 8395 ft 110 kts 237°
2026-04-29 14:09 53.30326 -169.09229 8394 ft 110 kts 237°
2026-04-29 14:10 53.29960 -169.10346 8394 ft 110 kts 237°
2026-04-29 14:10 53.29593 -169.11466 8393 ft 110 kts 237°
2026-04-29 14:10 53.29227 -169.12583 8392 ft 110 kts 237°
2026-04-29 14:10 53.28860 -169.13703 8392 ft 110 kts 237°
2026-04-29 14:11 53.28494 -169.14819 8391 ft 110 kts 237°
2026-04-29 14:11 53.28127 -169.15937 8390 ft 110 kts 237°
2026-04-29 14:11 53.27755 -169.17070 8389 ft 110 kts 237°
2026-04-29 14:11 53.27387 -169.18188 8389 ft 110 kts 237°
2026-04-29 14:12 53.27021 -169.19304 8388 ft 110 kts 237°
2026-04-29 14:12 53.26653 -169.20422 8387 ft 110 kts 237°
2026-04-29 14:12 53.26285 -169.21539 8387 ft 110 kts 237°
2026-04-29 14:12 53.25918 -169.22655 8386 ft 110 kts 237°
2026-04-29 14:13 53.25550 -169.23771 8385 ft 110 kts 237°
2026-04-29 14:13 53.25182 -169.24889 8384 ft 110 kts 237°
2026-04-29 14:13 53.24814 -169.26005 8384 ft 110 kts 237°
2026-04-29 14:13 53.24446 -169.27121 8383 ft 110 kts 237°
2026-04-29 14:14 53.24078 -169.28237 8382 ft 110 kts 237°
2026-04-29 14:14 53.23710 -169.29352 8381 ft 110 kts 237°
2026-04-29 14:14 53.23342 -169.30467 8381 ft 110 kts 237°
2026-04-29 14:14 53.22968 -169.31597 8380 ft 110 kts 237°
2026-04-29 14:15 53.22600 -169.32711 8379 ft 110 kts 237°
2026-04-29 14:15 53.22231 -169.33828 8378 ft 110 kts 237°
2026-04-29 14:15 53.21862 -169.34942 8378 ft 110 kts 237°
2026-04-29 14:15 53.21493 -169.36057 8377 ft 110 kts 237°
2026-04-29 14:16 53.21124 -169.37170 8376 ft 110 kts 237°
2026-04-29 14:16 53.20755 -169.38284 8375 ft 110 kts 237°
2026-04-29 14:16 53.20386 -169.39399 8375 ft 110 kts 237°
2026-04-29 14:16 53.20016 -169.40513 8374 ft 110 kts 237°
2026-04-29 14:17 53.19647 -169.41627 8373 ft 110 kts 237°
2026-04-29 14:17 53.19275 -169.42748 8373 ft 110 kts 237°
2026-04-29 14:17 53.18904 -169.43866 8372 ft 111 kts 237°
2026-04-29 14:17 53.18531 -169.44988 8371 ft 111 kts 237°
2026-04-29 14:18 53.18159 -169.46108 8370 ft 111 kts 237°
2026-04-29 14:18 53.17786 -169.47230 8370 ft 111 kts 237°
2026-04-29 14:18 53.17408 -169.48367 8369 ft 111 kts 237°
2026-04-29 14:18 53.17036 -169.49485 8368 ft 111 kts 237°
2026-04-29 14:19 53.16662 -169.50608 8367 ft 111 kts 237°
2026-04-29 14:19 53.16289 -169.51728 8366 ft 111 kts 237°
2026-04-29 14:19 53.15916 -169.52848 8366 ft 111 kts 237°
2026-04-29 14:19 53.15541 -169.53970 8365 ft 111 kts 237°
2026-04-29 14:20 53.15168 -169.55088 8364 ft 111 kts 237°
2026-04-29 14:20 53.14794 -169.56210 8363 ft 111 kts 237°
2026-04-29 14:20 53.14420 -169.57329 8363 ft 111 kts 237°
2026-04-29 14:20 53.14046 -169.58448 8362 ft 111 kts 237°
2026-04-29 14:21 53.13672 -169.59568 8361 ft 111 kts 237°
2026-04-29 14:21 53.13297 -169.60688 8360 ft 111 kts 237°
2026-04-29 14:21 53.12918 -169.61823 8359 ft 111 kts 237°
2026-04-29 14:21 53.12544 -169.62941 8359 ft 111 kts 237°
2026-04-29 14:22 53.12169 -169.64060 8358 ft 111 kts 237°
2026-04-29 14:22 53.11794 -169.65179 8357 ft 111 kts 237°
2026-04-29 14:22 53.11419 -169.66297 8356 ft 111 kts 237°
2026-04-29 14:22 53.11045 -169.67415 8355 ft 111 kts 237°
2026-04-29 14:23 53.10670 -169.68533 8354 ft 111 kts 237°
2026-04-29 14:23 53.10294 -169.69652 8353 ft 111 kts 237°
2026-04-29 14:23 53.09919 -169.70770 8352 ft 111 kts 237°
2026-04-29 14:23 53.09543 -169.71888 8352 ft 111 kts 237°
2026-04-29 14:24 53.09168 -169.73005 8351 ft 111 kts 237°
2026-04-29 14:24 53.08792 -169.74123 8350 ft 111 kts 237°
2026-04-29 14:24 53.08411 -169.75254 8349 ft 111 kts 237°
2026-04-29 14:24 53.08035 -169.76372 8348 ft 111 kts 237°
2026-04-29 14:25 53.07659 -169.77490 8347 ft 111 kts 237°
2026-04-29 14:25 53.07283 -169.78604 8347 ft 111 kts 237°
2026-04-29 14:25 53.06907 -169.79721 8346 ft 111 kts 237°
2026-04-29 14:25 53.06530 -169.80838 8345 ft 111 kts 237°
2026-04-29 14:26 53.06153 -169.81954 8344 ft 111 kts 237°
2026-04-29 14:26 53.05777 -169.83068 8343 ft 111 kts 237°
2026-04-29 14:26 53.05400 -169.84185 8342 ft 111 kts 237°
2026-04-29 14:26 53.05023 -169.85300 8341 ft 111 kts 237°
2026-04-29 14:27 53.04646 -169.86416 8340 ft 111 kts 237°
2026-04-29 14:27 53.04269 -169.87531 8340 ft 111 kts 237°
2026-04-29 14:27 53.03892 -169.88645 8339 ft 111 kts 237°
2026-04-29 14:28 53.03137 -169.90872 8337 ft 111 kts 237°
2026-04-29 14:28 53.02754 -169.92001 8336 ft 111 kts 237°
2026-04-29 14:28 53.02375 -169.93115 8335 ft 111 kts 237°
2026-04-29 14:28 53.01997 -169.94227 8334 ft 111 kts 237°
2026-04-29 14:29 53.01618 -169.95341 8333 ft 111 kts 236°
2026-04-29 14:29 53.01239 -169.96452 8333 ft 111 kts 236°
2026-04-29 14:29 53.00859 -169.97563 8332 ft 111 kts 236°
2026-04-29 14:29 53.00477 -169.98671 8331 ft 111 kts 236°
2026-04-29 14:30 53.00113 -169.99797 8330 ft 112 kts 242°
2026-04-29 14:30 52.99855 -170.01022 8329 ft 113 kts 245°
2026-04-29 14:30 52.99615 -170.02268 8328 ft 114 kts 245°
2026-04-29 14:30 52.99374 -170.03527 8301 ft 116 kts 245°
2026-04-29 14:31 52.99125 -170.04826 8245 ft 120 kts 246°
2026-04-29 14:31 52.98875 -170.06146 8218 ft 120 kts 246°
2026-04-29 14:31 52.98622 -170.07474 8210 ft 119 kts 246°
2026-04-29 14:31 52.98375 -170.08769 8207 ft 118 kts 245°
2026-04-29 14:32 52.98128 -170.10054 8206 ft 117 kts 245°
2026-04-29 14:32 52.97882 -170.11334 8205 ft 116 kts 245°
2026-04-29 14:32 52.97637 -170.12608 8205 ft 116 kts 245°
2026-04-29 14:32 52.97393 -170.13879 8204 ft 116 kts 245°
2026-04-29 14:33 52.97149 -170.15146 8204 ft 116 kts 245°
2026-04-29 14:33 52.96904 -170.16416 8204 ft 115 kts 245°
2026-04-29 14:33 52.96661 -170.17681 8204 ft 115 kts 245°
2026-04-29 14:33 52.96417 -170.18947 8203 ft 115 kts 245°
2026-04-29 14:34 52.96173 -170.20212 8203 ft 115 kts 245°
2026-04-29 14:34 52.95929 -170.21477 8203 ft 115 kts 245°
2026-04-29 14:34 52.95681 -170.22760 8202 ft 115 kts 245°
2026-04-29 14:34 52.95437 -170.24026 8201 ft 115 kts 245°
2026-04-29 14:35 52.95192 -170.25290 8201 ft 115 kts 245°
2026-04-29 14:35 52.94948 -170.26554 8201 ft 115 kts 245°
2026-04-29 14:35 52.94703 -170.27818 8200 ft 115 kts 245°
2026-04-29 14:35 52.94458 -170.29084 8200 ft 115 kts 245°
2026-04-29 14:36 52.94214 -170.30346 8200 ft 115 kts 245°
2026-04-29 14:36 52.93968 -170.31612 8199 ft 115 kts 245°
2026-04-29 14:36 52.93724 -170.32874 8199 ft 115 kts 245°
2026-04-29 14:36 52.93478 -170.34138 8199 ft 115 kts 245°
2026-04-29 14:37 52.93233 -170.35400 8198 ft 115 kts 245°
2026-04-29 14:37 52.92987 -170.36665 8198 ft 115 kts 245°
2026-04-29 14:37 52.92741 -170.37929 8198 ft 115 kts 245°
2026-04-29 14:37 52.92496 -170.39191 8198 ft 115 kts 245°
2026-04-29 14:38 52.92250 -170.40455 8197 ft 115 kts 245°
2026-04-29 14:38 52.92001 -170.41731 8197 ft 115 kts 245°
2026-04-29 14:38 52.91755 -170.42994 8197 ft 115 kts 245°
2026-04-29 14:38 52.91508 -170.44257 8196 ft 115 kts 245°
2026-04-29 14:39 52.91262 -170.45519 8196 ft 115 kts 245°
2026-04-29 14:39 52.91015 -170.46781 8196 ft 115 kts 245°
2026-04-29 14:39 52.90768 -170.48044 8196 ft 115 kts 245°
2026-04-29 14:39 52.90521 -170.49305 8195 ft 115 kts 245°
2026-04-29 14:40 52.90274 -170.50567 8194 ft 116 kts 245°
2026-04-29 14:40 52.90026 -170.51834 8194 ft 116 kts 245°
2026-04-29 14:40 52.89778 -170.53101 8194 ft 116 kts 245°
2026-04-29 14:40 52.89529 -170.54370 8194 ft 116 kts 245°
2026-04-29 14:41 52.89277 -170.55655 8193 ft 116 kts 245°
2026-04-29 14:41 52.89027 -170.56926 8193 ft 116 kts 245°
2026-04-29 14:41 52.88778 -170.58194 8193 ft 116 kts 245°
2026-04-29 14:41 52.88529 -170.59463 8193 ft 116 kts 245°
2026-04-29 14:42 52.88278 -170.60734 8192 ft 116 kts 245°
2026-04-29 14:42 52.88029 -170.62001 8192 ft 116 kts 245°
2026-04-29 14:42 52.87778 -170.63272 8191 ft 116 kts 245°
2026-04-29 14:42 52.87528 -170.64540 8191 ft 116 kts 245°
2026-04-29 14:43 52.87278 -170.65809 8191 ft 116 kts 245°
2026-04-29 14:43 52.87027 -170.67078 8191 ft 116 kts 245°
2026-04-29 14:43 52.86777 -170.68345 8190 ft 116 kts 245°
2026-04-29 14:43 52.86526 -170.69612 8190 ft 116 kts 245°
2026-04-29 14:44 52.86276 -170.70878 8190 ft 116 kts 245°
2026-04-29 14:44 52.86022 -170.72161 8189 ft 116 kts 245°
2026-04-29 14:44 52.85774 -170.73411 8189 ft 116 kts 245°
2026-04-29 14:44 52.85520 -170.74693 8189 ft 116 kts 245°
2026-04-29 14:45 52.85269 -170.75957 8189 ft 116 kts 245°
2026-04-29 14:45 52.85018 -170.77223 8188 ft 116 kts 245°
2026-04-29 14:45 52.84767 -170.78487 8188 ft 116 kts 245°
2026-04-29 14:45 52.84515 -170.79752 8188 ft 116 kts 245°
2026-04-29 14:46 52.84264 -170.81016 8188 ft 116 kts 245°
2026-04-29 14:46 52.84012 -170.82281 8187 ft 116 kts 245°
2026-04-29 14:46 52.83761 -170.83544 8187 ft 116 kts 245°
2026-04-29 14:46 52.83508 -170.84810 8187 ft 116 kts 245°
2026-04-29 14:47 52.83257 -170.86072 8186 ft 116 kts 245°
2026-04-29 14:47 52.83004 -170.87338 8186 ft 116 kts 245°
2026-04-29 14:47 52.82748 -170.88618 8186 ft 116 kts 245°
2026-04-29 14:47 52.82581 -170.89454 8185 ft 116 kts 245°
2026-04-29 14:48 52.82243 -170.91146 8185 ft 116 kts 245°
2026-04-29 14:48 52.81990 -170.92409 8185 ft 116 kts 245°
2026-04-29 14:48 52.81737 -170.93672 8185 ft 116 kts 245°
2026-04-29 14:48 52.81485 -170.94934 8184 ft 116 kts 245°
2026-04-29 14:49 52.81232 -170.96195 8184 ft 116 kts 245°
2026-04-29 14:49 52.80978 -170.97460 8184 ft 116 kts 245°
2026-04-29 14:49 52.80725 -170.98723 8183 ft 116 kts 245°
2026-04-29 14:49 52.80470 -170.99989 8183 ft 116 kts 245°
2026-04-29 14:50 52.80216 -171.01256 8183 ft 116 kts 245°
2026-04-29 14:50 52.79961 -171.02522 8183 ft 116 kts 245°
2026-04-29 14:50 52.79706 -171.03791 8182 ft 116 kts 245°
2026-04-29 14:50 52.79448 -171.05074 8182 ft 117 kts 245°
2026-04-29 14:51 52.79195 -171.06328 8182 ft 117 kts 245°
2026-04-29 14:51 52.78937 -171.07610 8181 ft 117 kts 245°
2026-04-29 14:51 52.78681 -171.08878 8181 ft 117 kts 245°
2026-04-29 14:51 52.78425 -171.10146 8181 ft 117 kts 245°
2026-04-29 14:52 52.78169 -171.11413 8181 ft 117 kts 245°
2026-04-29 14:52 52.77913 -171.12680 8180 ft 117 kts 245°
2026-04-29 14:52 52.77656 -171.13949 8180 ft 117 kts 245°
2026-04-29 14:52 52.77400 -171.15217 8180 ft 117 kts 245°
2026-04-29 14:53 52.77144 -171.16482 8179 ft 117 kts 245°
2026-04-29 14:53 52.76887 -171.17749 8179 ft 117 kts 245°
2026-04-29 14:53 52.76630 -171.19015 8179 ft 117 kts 245°
2026-04-29 14:53 52.76373 -171.20283 8179 ft 117 kts 245°
2026-04-29 14:54 52.76199 -171.21139 8178 ft 116 kts 245°
2026-04-29 14:54 52.75942 -171.22403 8178 ft 116 kts 245°
2026-04-29 14:54 52.75685 -171.23667 8178 ft 116 kts 245°
2026-04-29 14:54 52.75428 -171.24931 8177 ft 116 kts 245°
2026-04-29 14:55 52.75171 -171.26195 8177 ft 116 kts 245°
2026-04-29 14:55 52.74913 -171.27459 8177 ft 116 kts 245°
2026-04-29 14:55 52.74655 -171.28725 8177 ft 116 kts 245°
2026-04-29 14:55 52.74398 -171.29985 8176 ft 116 kts 245°
2026-04-29 14:56 52.74141 -171.31248 8176 ft 116 kts 245°
2026-04-29 14:56 52.73882 -171.32511 8176 ft 116 kts 245°
2026-04-29 14:56 52.73621 -171.33792 8175 ft 116 kts 246°
2026-04-29 14:56 52.73362 -171.35057 8175 ft 117 kts 246°
2026-04-29 14:57 52.73103 -171.36322 8175 ft 117 kts 246°
2026-04-29 14:57 52.72845 -171.37587 8175 ft 117 kts 246°
2026-04-29 14:57 52.72586 -171.38851 8174 ft 117 kts 246°
2026-04-29 14:57 52.72326 -171.40119 8174 ft 117 kts 246°
2026-04-29 14:58 52.72066 -171.41385 8174 ft 117 kts 246°
2026-04-29 14:58 52.71807 -171.42649 8174 ft 117 kts 246°
2026-04-29 14:58 52.71547 -171.43917 8173 ft 117 kts 246°
2026-04-29 14:58 52.71286 -171.45183 8173 ft 117 kts 246°
2026-04-29 14:59 52.71026 -171.46448 8173 ft 117 kts 246°
2026-04-29 14:59 52.70766 -171.47715 8173 ft 117 kts 246°
2026-04-29 14:59 52.70502 -171.48998 8172 ft 117 kts 245°
2026-04-29 14:59 52.70240 -171.50267 8172 ft 117 kts 245°
2026-04-29 15:00 52.69979 -171.51534 8172 ft 117 kts 245°
2026-04-29 15:00 52.69718 -171.52801 8171 ft 117 kts 245°
2026-04-29 15:00 52.69456 -171.54067 8171 ft 117 kts 245°
2026-04-29 15:00 52.69195 -171.55334 8171 ft 117 kts 245°
2026-04-29 15:01 52.68933 -171.56599 8171 ft 117 kts 245°
2026-04-29 15:01 52.68671 -171.57866 8170 ft 117 kts 245°
2026-04-29 15:01 52.68409 -171.59134 8170 ft 117 kts 245°
2026-04-29 15:01 52.68147 -171.60397 8170 ft 117 kts 245°
2026-04-29 15:02 52.67885 -171.61663 8170 ft 117 kts 245°
2026-04-29 15:02 52.67623 -171.62927 8170 ft 117 kts 245°
2026-04-29 15:02 52.67360 -171.64192 8170 ft 117 kts 245°
2026-04-29 15:02 52.67097 -171.65459 8170 ft 117 kts 245°
2026-04-29 15:03 52.66832 -171.66738 8170 ft 117 kts 246°
2026-04-29 15:03 52.66569 -171.68000 8170 ft 117 kts 245°
2026-04-29 15:03 52.66307 -171.69261 8169 ft 117 kts 245°
2026-04-29 15:03 52.66044 -171.70523 8169 ft 117 kts 245°
2026-04-29 15:04 52.65782 -171.71782 8169 ft 117 kts 245°
2026-04-29 15:04 52.65519 -171.73042 8169 ft 117 kts 245°
2026-04-29 15:04 52.65256 -171.74302 8168 ft 117 kts 245°
2026-04-29 15:04 52.64993 -171.75563 8168 ft 117 kts 245°
2026-04-29 15:05 52.64730 -171.76822 8168 ft 117 kts 245°
2026-04-29 15:05 52.64466 -171.78085 8167 ft 117 kts 246°
2026-04-29 15:05 52.64203 -171.79348 8167 ft 117 kts 246°
2026-04-29 15:05 52.63938 -171.80611 8167 ft 117 kts 246°
2026-04-29 15:06 52.63671 -171.81892 8167 ft 117 kts 246°
2026-04-29 15:06 52.63406 -171.83158 8166 ft 117 kts 246°
2026-04-29 15:06 52.63141 -171.84422 8166 ft 117 kts 246°
2026-04-29 15:06 52.62875 -171.85687 8166 ft 117 kts 246°
2026-04-29 15:07 52.62610 -171.86952 8166 ft 117 kts 246°
2026-04-29 15:07 52.62344 -171.88218 8166 ft 117 kts 246°
2026-04-29 15:07 52.62079 -171.89483 8165 ft 117 kts 246°
2026-04-29 15:07 52.61813 -171.90748 8165 ft 117 kts 246°
2026-04-29 15:08 52.61547 -171.92012 8165 ft 117 kts 246°
2026-04-29 15:08 52.61281 -171.93276 8164 ft 117 kts 246°
2026-04-29 15:08 52.61014 -171.94540 8164 ft 117 kts 246°
2026-04-29 15:08 52.60748 -171.95805 8164 ft 117 kts 246°
2026-04-29 15:09 52.60481 -171.97069 8164 ft 117 kts 246°
2026-04-29 15:09 52.60211 -171.98350 8163 ft 117 kts 246°
2026-04-29 15:09 52.59944 -171.99615 8163 ft 117 kts 246°
2026-04-29 15:09 52.59678 -172.00878 8163 ft 117 kts 244°
2026-04-29 15:10 52.59410 -172.02150 8160 ft 119 kts 243°
2026-04-29 15:10 52.59135 -172.03447 8161 ft 121 kts 243°
2026-04-29 15:10 52.58859 -172.04756 8162 ft 122 kts 243°
2026-04-29 15:10 52.58581 -172.06076 8162 ft 123 kts 243°
2026-04-29 15:11 52.58302 -172.07401 8162 ft 123 kts 243°
2026-04-29 15:11 52.58021 -172.08730 8162 ft 123 kts 243°
2026-04-29 15:11 52.57739 -172.10062 8161 ft 124 kts 243°
2026-04-29 15:11 52.57457 -172.11394 8161 ft 124 kts 243°
2026-04-29 15:12 52.57173 -172.12729 8161 ft 124 kts 243°
2026-04-29 15:12 52.56890 -172.14064 8161 ft 124 kts 243°
2026-04-29 15:12 52.56602 -172.15417 8160 ft 124 kts 243°
2026-04-29 15:12 52.56319 -172.16749 8160 ft 124 kts 243°
2026-04-29 15:13 52.56034 -172.18086 8160 ft 124 kts 243°
2026-04-29 15:13 52.55749 -172.19420 8160 ft 124 kts 243°
2026-04-29 15:13 52.55465 -172.20751 8159 ft 124 kts 243°
2026-04-29 15:13 52.55180 -172.22087 8159 ft 124 kts 243°
2026-04-29 15:14 52.54895 -172.23420 8159 ft 124 kts 243°
2026-04-29 15:14 52.54610 -172.24754 8158 ft 124 kts 243°
2026-04-29 15:14 52.54325 -172.26087 8158 ft 124 kts 243°
2026-04-29 15:14 52.54039 -172.27422 8158 ft 124 kts 243°
2026-04-29 15:15 52.53754 -172.28755 8158 ft 124 kts 243°
2026-04-29 15:15 52.53468 -172.30089 8158 ft 124 kts 243°
2026-04-29 15:15 52.53182 -172.31421 8157 ft 124 kts 243°
2026-04-29 15:15 52.52896 -172.32753 8157 ft 124 kts 243°
2026-04-29 15:16 52.52606 -172.34105 8157 ft 124 kts 243°
2026-04-29 15:16 52.52320 -172.35436 8157 ft 124 kts 243°
2026-04-29 15:16 52.52033 -172.36768 8157 ft 124 kts 243°
2026-04-29 15:16 52.51745 -172.38113 8140 ft 127 kts 241°
2026-04-29 15:17 52.51447 -172.39495 8129 ft 130 kts 242°
2026-04-29 15:17 52.51144 -172.40910 8128 ft 133 kts 243°
2026-04-29 15:17 52.50840 -172.42342 8128 ft 134 kts 243°
2026-04-29 15:17 52.50531 -172.43785 8128 ft 135 kts 243°
2026-04-29 15:18 52.50221 -172.45233 8128 ft 135 kts 243°
2026-04-29 15:18 52.49909 -172.46688 8128 ft 135 kts 243°
2026-04-29 15:18 52.49596 -172.48141 8127 ft 136 kts 243°
2026-04-29 15:18 52.49282 -172.49599 8127 ft 136 kts 243°
2026-04-29 15:19 52.48967 -172.51054 8127 ft 136 kts 243°
2026-04-29 15:19 52.48649 -172.52526 8126 ft 136 kts 243°
2026-04-29 15:19 52.48333 -172.53982 8126 ft 135 kts 243°
2026-04-29 15:19 52.48018 -172.55434 8126 ft 135 kts 243°
2026-04-29 15:20 52.47702 -172.56889 8125 ft 135 kts 243°
2026-04-29 15:20 52.47387 -172.58338 8125 ft 135 kts 243°
2026-04-29 15:20 52.47071 -172.59792 8125 ft 135 kts 243°
2026-04-29 15:20 52.46755 -172.61245 8125 ft 135 kts 243°
2026-04-29 15:21 52.46439 -172.62695 8124 ft 135 kts 243°
2026-04-29 15:21 52.46122 -172.64148 8124 ft 135 kts 243°
2026-04-29 15:21 52.45806 -172.65599 8124 ft 135 kts 243°
2026-04-29 15:21 52.45489 -172.67050 8124 ft 136 kts 243°
2026-04-29 15:22 52.45172 -172.68502 8124 ft 135 kts 243°
2026-04-29 15:22 52.44855 -172.69954 8123 ft 135 kts 243°
2026-04-29 15:22 52.44534 -172.71422 8123 ft 135 kts 243°
2026-04-29 15:22 52.44217 -172.72871 8123 ft 135 kts 243°
2026-04-29 15:23 52.43900 -172.74319 8123 ft 135 kts 243°
2026-04-29 15:23 52.43582 -172.75769 8122 ft 135 kts 243°
2026-04-29 15:23 52.43264 -172.77219 8122 ft 135 kts 243°
2026-04-29 15:23 52.42947 -172.78665 8122 ft 135 kts 243°
2026-04-29 15:24 52.42629 -172.80111 8122 ft 135 kts 243°
2026-04-29 15:24 52.42311 -172.81560 8122 ft 135 kts 243°
2026-04-29 15:24 52.41992 -172.83008 8121 ft 135 kts 243°
2026-04-29 15:24 52.41674 -172.84453 8121 ft 135 kts 243°
2026-04-29 15:25 52.41356 -172.85894 8121 ft 135 kts 243°
2026-04-29 15:25 52.41037 -172.87341 8121 ft 135 kts 243°
2026-04-29 15:25 52.40715 -172.88800 8121 ft 135 kts 243°
2026-04-29 15:25 52.40397 -172.90243 8121 ft 135 kts 243°
2026-04-29 15:26 52.40079 -172.91682 8120 ft 135 kts 243°
2026-04-29 15:26 52.39760 -172.93125 8120 ft 135 kts 243°
2026-04-29 15:26 52.39441 -172.94569 8120 ft 135 kts 243°
2026-04-29 15:26 52.39122 -172.96010 8120 ft 135 kts 243°
2026-04-29 15:27 52.38802 -172.97452 8120 ft 135 kts 244°
2026-04-29 15:27 52.38483 -172.98893 8119 ft 135 kts 244°
2026-04-29 15:27 52.38163 -173.00335 8119 ft 135 kts 244°
2026-04-29 15:27 52.37844 -173.01772 8119 ft 135 kts 244°
2026-04-29 15:28 52.37525 -173.03208 8119 ft 135 kts 244°
2026-04-29 15:28 52.37309 -173.04180 8119 ft 135 kts 244°
2026-04-29 15:28 52.36886 -173.06085 8119 ft 135 kts 244°
2026-04-29 15:28 52.36566 -173.07519 8118 ft 135 kts 244°
2026-04-29 15:29 52.36242 -173.08976 8118 ft 135 kts 244°
2026-04-29 15:29 52.35601 -173.11848 8118 ft 135 kts 244°
2026-04-29 15:30 52.34961 -173.14714 8118 ft 134 kts 244°
2026-04-29 15:30 52.34641 -173.16145 8117 ft 134 kts 244°
2026-04-29 15:30 52.34321 -173.17576 8117 ft 134 kts 244°
2026-04-29 15:30 52.34001 -173.19006 8117 ft 134 kts 244°
2026-04-29 15:31 52.33680 -173.20437 8117 ft 134 kts 244°
2026-04-29 15:31 52.33360 -173.21865 8117 ft 134 kts 244°
2026-04-29 15:31 52.33039 -173.23296 8115 ft 134 kts 244°
2026-04-29 15:31 52.32718 -173.24725 8114 ft 134 kts 244°
2026-04-29 15:32 52.32393 -173.26174 8114 ft 134 kts 244°
2026-04-29 15:32 52.32071 -173.27608 8107 ft 135 kts 244°
2026-04-29 15:32 52.31749 -173.29041 8105 ft 135 kts 244°
2026-04-29 15:32 52.31426 -173.30474 8104 ft 135 kts 244°
2026-04-29 15:33 52.31105 -173.31904 8104 ft 134 kts 244°
2026-04-29 15:33 52.30782 -173.33334 8104 ft 134 kts 244°
2026-04-29 15:33 52.30459 -173.34765 8104 ft 134 kts 244°
2026-04-29 15:33 52.30138 -173.36189 8104 ft 134 kts 244°
2026-04-29 15:34 52.29815 -173.37616 8104 ft 134 kts 244°
2026-04-29 15:34 52.29493 -173.39041 8104 ft 134 kts 244°
2026-04-29 15:34 52.29170 -173.40466 8104 ft 134 kts 244°
2026-04-29 15:34 52.28848 -173.41889 8104 ft 134 kts 244°
2026-04-29 15:35 52.28526 -173.43313 8103 ft 134 kts 244°
2026-04-29 15:35 52.28203 -173.44736 8103 ft 134 kts 244°
2026-04-29 15:35 52.27876 -173.46178 8103 ft 134 kts 244°
2026-04-29 15:35 52.27553 -173.47601 8108 ft 133 kts 244°
2026-04-29 15:36 52.27237 -173.48992 8170 ft 129 kts 244°
2026-04-29 15:36 52.26927 -173.50346 8228 ft 126 kts 244°
2026-04-29 15:36 52.26620 -173.51674 8286 ft 124 kts 243°
2026-04-29 15:36 52.26317 -173.52987 8344 ft 123 kts 243°
2026-04-29 15:37 52.26018 -173.54288 8402 ft 122 kts 243°
2026-04-29 15:37 52.25721 -173.55580 8460 ft 122 kts 243°
2026-04-29 15:37 52.25422 -173.56879 8488 ft 124 kts 244°
2026-04-29 15:37 52.25119 -173.58207 8498 ft 126 kts 244°
2026-04-29 15:38 52.24812 -173.59560 8501 ft 128 kts 244°
2026-04-29 15:38 52.24501 -173.60935 8503 ft 130 kts 245°
2026-04-29 15:38 52.24187 -173.62322 8503 ft 131 kts 245°
2026-04-29 15:38 52.23868 -173.63725 8503 ft 132 kts 244°
2026-04-29 15:39 52.23549 -173.65126 8503 ft 132 kts 244°
2026-04-29 15:39 52.23228 -173.66530 8502 ft 132 kts 244°
2026-04-29 15:39 52.22906 -173.67937 8502 ft 133 kts 244°
2026-04-29 15:39 52.22584 -173.69344 8501 ft 133 kts 244°
2026-04-29 15:40 52.22255 -173.70773 8501 ft 133 kts 244°
2026-04-29 15:40 52.21931 -173.72182 8501 ft 133 kts 244°
2026-04-29 15:40 52.21606 -173.73591 8500 ft 133 kts 244°
2026-04-29 15:40 52.21282 -173.74999 8500 ft 133 kts 244°
2026-04-29 15:41 52.20956 -173.76406 8500 ft 133 kts 244°
2026-04-29 15:41 52.20630 -173.77815 8500 ft 133 kts 244°
2026-04-29 15:41 52.20304 -173.79221 8500 ft 133 kts 244°
2026-04-29 15:41 52.19977 -173.80629 8500 ft 133 kts 244°
2026-04-29 15:42 52.19649 -173.82036 8500 ft 133 kts 244°
2026-04-29 15:42 52.19320 -173.83440 8500 ft 133 kts 244°
2026-04-29 15:42 52.18991 -173.84843 8500 ft 133 kts 244°
2026-04-29 15:42 52.18658 -173.86246 8500 ft 133 kts 244°
2026-04-29 15:43 52.18321 -173.87644 8500 ft 133 kts 244°
2026-04-29 15:43 52.18001 -173.89049 8498 ft 134 kts 252°
2026-04-29 15:43 52.18043 -173.90604 8498 ft 138 kts 278°
2026-04-29 15:43 52.18244 -173.92108 8500 ft 138 kts 281°
2026-04-29 15:44 52.18466 -173.93643 8501 ft 138 kts 281°
2026-04-29 15:44 52.18682 -173.95155 8500 ft 138 kts 281°
2026-04-29 15:44 52.18895 -173.96665 8500 ft 138 kts 281°
2026-04-29 15:44 52.19106 -173.98184 8500 ft 138 kts 281°
2026-04-29 15:45 52.19317 -173.99702 8500 ft 138 kts 281°
2026-04-29 15:45 52.19527 -174.01230 8496 ft 140 kts 282°
2026-04-29 15:45 52.19743 -174.02798 8496 ft 144 kts 283°
2026-04-29 15:45 52.19965 -174.04391 8498 ft 146 kts 283°
2026-04-29 15:46 52.20190 -174.06006 8500 ft 147 kts 283°
2026-04-29 15:46 52.20341 -174.07102 8500 ft 148 kts 283°
2026-04-29 15:46 52.20566 -174.08736 8501 ft 148 kts 282°
2026-04-29 15:46 52.20789 -174.10376 8501 ft 149 kts 282°
2026-04-29 15:47 52.21011 -174.12020 8501 ft 149 kts 282°
2026-04-29 15:47 52.21232 -174.13670 8501 ft 149 kts 282°
2026-04-29 15:47 52.21450 -174.15315 8501 ft 149 kts 282°
2026-04-29 15:47 52.21664 -174.16964 8501 ft 149 kts 282°
2026-04-29 15:48 52.21870 -174.18613 8500 ft 149 kts 281°
2026-04-29 15:48 52.21980 -174.20279 8499 ft 148 kts 267°
2026-04-29 15:48 52.21898 -174.21960 8500 ft 147 kts 259°
2026-04-29 15:48 52.21747 -174.23598 8501 ft 146 kts 256°
2026-04-29 15:49 52.21566 -174.25222 8501 ft 146 kts 255°
2026-04-29 15:49 52.21369 -174.26842 8501 ft 146 kts 254°
2026-04-29 15:49 52.21163 -174.28458 8501 ft 146 kts 254°
2026-04-29 15:49 52.20952 -174.30072 8501 ft 146 kts 253°
2026-04-29 15:50 52.20739 -174.31687 8501 ft 146 kts 253°
2026-04-29 15:50 52.20525 -174.33299 8501 ft 146 kts 253°
2026-04-29 15:50 52.20309 -174.34911 8501 ft 146 kts 253°
2026-04-29 15:50 52.20092 -174.36524 8501 ft 146 kts 253°
2026-04-29 15:51 52.19876 -174.38136 8501 ft 146 kts 253°
2026-04-29 15:51 52.19658 -174.39748 8501 ft 146 kts 253°
2026-04-29 15:51 52.19438 -174.41381 8501 ft 146 kts 253°
2026-04-29 15:51 52.19220 -174.42991 8501 ft 145 kts 253°
2026-04-29 15:52 52.19003 -174.44592 8501 ft 145 kts 253°
2026-04-29 15:52 52.18785 -174.46197 8501 ft 145 kts 253°
2026-04-29 15:52 52.18568 -174.47799 8501 ft 145 kts 253°
2026-04-29 15:52 52.18350 -174.49403 8500 ft 145 kts 253°
2026-04-29 15:53 52.18132 -174.51007 8500 ft 145 kts 253°
2026-04-29 15:53 52.17914 -174.52606 8500 ft 145 kts 253°
2026-04-29 15:53 52.17695 -174.54210 8500 ft 145 kts 253°
2026-04-29 15:53 52.17477 -174.55809 8500 ft 145 kts 253°
2026-04-29 15:54 52.17258 -174.57413 8500 ft 145 kts 253°
2026-04-29 15:54 52.17039 -174.59014 8500 ft 145 kts 253°
2026-04-29 15:54 52.16820 -174.60609 8501 ft 145 kts 253°
2026-04-29 15:54 52.16601 -174.62207 8500 ft 145 kts 253°
2026-04-29 15:55 52.16382 -174.63803 8500 ft 144 kts 253°
2026-04-29 15:55 52.16163 -174.65396 8500 ft 144 kts 253°
2026-04-29 15:55 52.15941 -174.67009 8500 ft 144 kts 253°
2026-04-29 15:55 52.15722 -174.68600 8500 ft 144 kts 253°
2026-04-29 15:56 52.15502 -174.70193 8500 ft 144 kts 253°
2026-04-29 15:56 52.15283 -174.71783 8500 ft 144 kts 253°
2026-04-29 15:56 52.15062 -174.73377 8500 ft 144 kts 253°
2026-04-29 15:56 52.14843 -174.74964 8500 ft 144 kts 253°
2026-04-29 15:57 52.14623 -174.76552 8500 ft 144 kts 254°
2026-04-29 15:57 52.14403 -174.78136 8500 ft 144 kts 253°
2026-04-29 15:57 52.14183 -174.79720 8499 ft 144 kts 253°
2026-04-29 15:57 52.13963 -174.81303 8500 ft 144 kts 253°
2026-04-29 15:58 52.13742 -174.82889 8500 ft 144 kts 253°
2026-04-29 15:58 52.13519 -174.84491 8499 ft 144 kts 253°
2026-04-29 15:58 52.13298 -174.86075 8500 ft 144 kts 253°
2026-04-29 15:58 52.13077 -174.87658 8500 ft 144 kts 253°
2026-04-29 15:59 52.12856 -174.89238 8500 ft 143 kts 254°
2026-04-29 15:59 52.12636 -174.90813 8499 ft 143 kts 254°
2026-04-29 15:59 52.12414 -174.92392 8499 ft 143 kts 254°
2026-04-29 15:59 52.12194 -174.93964 8499 ft 143 kts 254°
2026-04-29 16:00 52.11973 -174.95539 8499 ft 143 kts 254°
2026-04-29 16:00 52.11751 -174.97112 8499 ft 143 kts 253°
2026-04-29 16:00 52.11530 -174.98682 8499 ft 143 kts 254°
2026-04-29 16:00 52.11308 -175.00254 8499 ft 143 kts 254°
2026-04-29 16:01 52.11087 -175.01827 8498 ft 143 kts 254°
2026-04-29 16:01 52.10865 -175.03397 8499 ft 143 kts 254°
2026-04-29 16:01 52.10642 -175.04969 8499 ft 143 kts 254°
2026-04-29 16:01 52.10417 -175.06560 8488 ft 143 kts 254°
2026-04-29 16:02 52.10193 -175.08140 8481 ft 144 kts 254°
2026-04-29 16:02 52.09969 -175.09719 8479 ft 143 kts 254°
2026-04-29 16:02 52.09745 -175.11295 8478 ft 143 kts 253°
2026-04-29 16:02 52.09521 -175.12866 8478 ft 143 kts 254°
2026-04-29 16:03 52.09297 -175.14436 8478 ft 142 kts 254°
2026-04-29 16:03 52.09072 -175.16000 8478 ft 142 kts 254°
2026-04-29 16:03 52.08848 -175.17564 8478 ft 142 kts 254°
2026-04-29 16:03 52.08623 -175.19126 8477 ft 142 kts 254°
2026-04-29 16:04 52.08397 -175.20691 8477 ft 142 kts 254°
2026-04-29 16:04 52.08171 -175.22250 8477 ft 142 kts 254°
2026-04-29 16:04 52.07944 -175.23814 8476 ft 142 kts 253°
2026-04-29 16:04 52.07717 -175.25375 8476 ft 142 kts 253°
2026-04-29 16:05 52.07488 -175.26933 8476 ft 142 kts 253°
2026-04-29 16:05 52.07253 -175.28513 8476 ft 142 kts 253°
2026-04-29 16:05 52.07019 -175.30069 8476 ft 142 kts 253°
2026-04-29 16:05 52.06780 -175.31617 8476 ft 142 kts 253°
2026-04-29 16:06 52.06533 -175.33165 8476 ft 141 kts 253°
2026-04-29 16:06 52.06292 -175.34713 8476 ft 141 kts 252°
2026-04-29 16:06 52.06035 -175.36243 8490 ft 140 kts 251°
2026-04-29 16:06 52.05765 -175.37756 8497 ft 140 kts 250°
2026-04-29 16:07 52.05486 -175.39266 8499 ft 140 kts 250°
2026-04-29 16:07 52.05201 -175.40776 8499 ft 140 kts 250°
2026-04-29 16:07 52.04913 -175.42285 8500 ft 140 kts 250°
2026-04-29 16:07 52.04625 -175.43790 8496 ft 140 kts 250°
2026-04-29 16:08 52.04335 -175.45298 8494 ft 140 kts 250°
2026-04-29 16:08 52.04044 -175.46808 8493 ft 140 kts 250°
2026-04-29 16:08 52.03749 -175.48336 8492 ft 140 kts 250°
2026-04-29 16:08 52.03458 -175.49840 8492 ft 140 kts 250°
2026-04-29 16:09 52.03167 -175.51343 8492 ft 140 kts 250°
2026-04-29 16:09 52.02874 -175.52853 8492 ft 140 kts 250°
2026-04-29 16:09 52.02582 -175.54357 8492 ft 140 kts 250°
2026-04-29 16:09 52.02290 -175.55863 8491 ft 140 kts 250°
2026-04-29 16:10 52.01997 -175.57369 8491 ft 140 kts 250°
2026-04-29 16:10 52.01705 -175.58873 8491 ft 140 kts 250°
2026-04-29 16:10 52.01412 -175.60375 8491 ft 140 kts 250°
2026-04-29 16:10 52.01119 -175.61882 8491 ft 140 kts 250°
2026-04-29 16:11 52.00825 -175.63386 8491 ft 140 kts 250°
2026-04-29 16:11 52.00532 -175.64886 8490 ft 140 kts 250°
2026-04-29 16:11 52.00239 -175.66385 8490 ft 139 kts 250°
2026-04-29 16:11 51.99947 -175.67881 8490 ft 139 kts 250°
2026-04-29 16:12 51.99647 -175.69419 8486 ft 143 kts 249°
2026-04-29 16:12 51.99448 -175.70442 8487 ft 145 kts 249°
2026-04-29 16:12 51.99043 -175.72535 8489 ft 147 kts 249°
2026-04-29 16:12 51.98736 -175.74119 8491 ft 148 kts 249°
2026-04-29 16:13 51.98444 -175.75621 8437 ft 134 kts 248°
2026-04-29 16:13 51.98163 -175.77005 8311 ft 125 kts 247°
2026-04-29 16:13 51.97891 -175.78308 8191 ft 120 kts 247°
2026-04-29 16:13 51.97630 -175.79559 8077 ft 115 kts 247°
2026-04-29 16:14 51.97378 -175.80773 7965 ft 112 kts 247°
2026-04-29 16:14 51.97133 -175.81964 7863 ft 112 kts 245°
2026-04-29 16:14 51.96879 -175.83217 7789 ft 122 kts 246°
2026-04-29 16:14 51.96617 -175.84562 7712 ft 129 kts 248°
2026-04-29 16:15 51.96347 -175.85984 7627 ft 131 kts 249°
2026-04-29 16:15 51.96077 -175.87395 7540 ft 131 kts 248°
2026-04-29 16:15 51.95804 -175.88804 7442 ft 131 kts 248°
2026-04-29 16:15 51.95529 -175.90210 7338 ft 130 kts 248°
2026-04-29 16:16 51.95255 -175.91596 7231 ft 128 kts 248°
2026-04-29 16:16 51.94984 -175.92959 7122 ft 127 kts 248°
2026-04-29 16:16 51.94713 -175.94310 7013 ft 126 kts 247°
2026-04-29 16:16 51.94442 -175.95660 6906 ft 126 kts 247°
2026-04-29 16:17 51.94173 -175.97003 6800 ft 125 kts 247°
2026-04-29 16:17 51.93905 -175.98346 6696 ft 125 kts 247°
2026-04-29 16:17 51.93637 -175.99685 6593 ft 125 kts 247°
2026-04-29 16:17 51.93370 -176.01022 6490 ft 125 kts 247°
2026-04-29 16:18 51.93102 -176.02362 6389 ft 125 kts 247°
2026-04-29 16:18 51.92834 -176.03699 6287 ft 125 kts 247°
2026-04-29 16:18 51.92562 -176.05057 6185 ft 125 kts 247°
2026-04-29 16:18 51.92293 -176.06395 6085 ft 126 kts 247°
2026-04-29 16:19 51.92023 -176.07738 5985 ft 126 kts 247°
2026-04-29 16:19 51.91752 -176.09081 5885 ft 126 kts 247°
2026-04-29 16:19 51.91481 -176.10423 5787 ft 125 kts 248°
2026-04-29 16:19 51.91208 -176.11764 5688 ft 125 kts 248°
2026-04-29 16:20 51.90935 -176.13100 5589 ft 125 kts 248°
2026-04-29 16:20 51.90659 -176.14434 5491 ft 125 kts 248°
2026-04-29 16:20 51.90381 -176.15764 5392 ft 125 kts 248°
2026-04-29 16:20 51.90094 -176.17086 5293 ft 125 kts 246°
2026-04-29 16:21 51.89928 -176.18481 5191 ft 125 kts 266°
2026-04-29 16:21 51.89888 -176.19881 5095 ft 124 kts 270°
2026-04-29 16:21 51.89858 -176.21271 4997 ft 124 kts 270°
2026-04-29 16:21 51.89826 -176.22660 4898 ft 123 kts 270°
2026-04-29 16:22 51.89791 -176.24044 4801 ft 123 kts 270°
2026-04-29 16:22 51.89755 -176.25422 4702 ft 123 kts 270°
2026-04-29 16:22 51.89718 -176.26796 4603 ft 122 kts 270°
2026-04-29 16:22 51.89681 -176.28168 4504 ft 122 kts 270°
2026-04-29 16:23 51.89644 -176.29538 4406 ft 122 kts 270°
2026-04-29 16:23 51.89607 -176.30903 4307 ft 121 kts 271°
2026-04-29 16:23 51.89569 -176.32265 4209 ft 121 kts 271°
2026-04-29 16:23 51.89531 -176.33622 4110 ft 121 kts 271°
2026-04-29 16:24 51.89493 -176.34998 4010 ft 121 kts 271°
2026-04-29 16:24 51.89455 -176.36351 3911 ft 120 kts 271°
2026-04-29 16:24 51.89417 -176.37698 3813 ft 120 kts 272°
2026-04-29 16:24 51.89378 -176.39042 3714 ft 120 kts 272°
2026-04-29 16:25 51.89340 -176.40381 3615 ft 119 kts 272°
2026-04-29 16:25 51.89301 -176.41720 3516 ft 119 kts 272°
2026-04-29 16:25 51.89262 -176.43051 3418 ft 118 kts 272°
2026-04-29 16:25 51.89222 -176.44378 3317 ft 117 kts 273°
2026-04-29 16:26 51.89180 -176.45648 3197 ft 109 kts 273°
2026-04-29 16:26 51.89136 -176.46844 3053 ft 105 kts 273°
2026-04-29 16:26 51.89096 -176.48032 2925 ft 107 kts 274°
2026-04-29 16:26 51.89058 -176.49239 2801 ft 107 kts 274°
2026-04-29 16:27 51.89018 -176.50442 2676 ft 107 kts 274°
2026-04-29 16:27 51.88975 -176.51642 2549 ft 106 kts 274°
2026-04-29 16:27 51.88926 -176.52835 2416 ft 104 kts 273°
2026-04-29 16:27 51.88826 -176.53990 2284 ft 105 kts 261°
2026-04-29 16:28 51.88590 -176.55107 2151 ft 105 kts 253°
2026-04-29 16:28 51.88340 -176.56075 2037 ft 105 kts 250°
2026-04-29 16:28 51.88051 -176.57108 2009 ft 94 kts 247°
2026-04-29 16:28 51.87683 -176.58047 1933 ft 102 kts 230°
2026-04-29 16:29 51.87218 -176.58903 1823 ft 103 kts 227°
2026-04-29 16:29 51.86731 -176.59751 1722 ft 102 kts 226°
2026-04-29 16:29 51.86249 -176.60586 1597 ft 103 kts 227°
2026-04-29 16:29 51.85801 -176.61512 1428 ft 105 kts 239°
2026-04-29 16:30 51.85488 -176.62550 1279 ft 102 kts 255°
2026-04-29 16:30 51.85289 -176.63652 1116 ft 101 kts 264°
2026-04-29 16:30 51.85145 -176.64753 1029 ft 98 kts 265°
2026-04-29 16:30 51.85006 -176.65784 985 ft 86 kts 266°
2026-04-29 16:31 51.84984 -176.66673 963 ft 76 kts 290°
2026-04-29 16:31 51.85146 -176.67424 922 ft 66 kts 315°
2026-04-29 16:31 51.85431 -176.68016 861 ft 66 kts 334°
2026-04-29 16:31 51.85802 -176.68320 779 ft 56 kts 358°
2026-04-29 16:32 51.86162 -176.68383 731 ft 49 kts 10°
2026-04-29 16:32 51.86383 -176.68320 720 ft 48 kts 21°
2026-04-29 16:32 51.86800 -176.68034 686 ft 48 kts 36°
2026-04-29 16:32 51.87050 -176.67684 619 ft 49 kts 43°
2026-04-29 16:33 51.87446 -176.66831 412 ft 47 kts 56°
2026-04-29 16:33 51.87617 -176.66344 320 ft 50 kts 56°
2026-04-29 16:33 51.87798 -176.65843 141 ft 54 kts 57°
2026-04-29 16:34 51.87963 -176.65370 31 ft 41 kts 58°
2026-04-29 16:34 51.88064 -176.65074 22 ft 23 kts 53°
2026-04-29 16:34 51.88148 -176.64848 22 ft 22 kts 60°
2026-04-29 16:34 51.88215 -176.64651 22 ft 18 kts 60°
2026-04-29 16:35 51.88274 -176.64484 22 ft 18 kts 60°
2026-04-29 16:35 51.88336 -176.64309 22 ft 17 kts 60°
2026-04-29 16:35 51.88318 -176.64196 22 ft 14 kts 175°
2026-04-29 16:35 51.88185 -176.64171 22 ft 22 kts 172°
2026-04-29 16:36 51.88025 -176.64138 22 ft 24 kts 172°
2026-04-29 16:36 51.87869 -176.64155 22 ft 21 kts 196°
2026-04-29 16:36 51.87708 -176.64226 22 ft 27 kts 195°
2026-04-29 16:36 51.87510 -176.64314 22 ft 31 kts 195°
2026-04-29 16:37 51.87299 -176.64402 22 ft 30 kts 196°
2026-04-29 16:37 51.87119 -176.64485 22 ft 23 kts 196°
2026-04-29 16:37 51.86996 -176.64497 22 ft 11 kts 135°
2026-04-29 16:37 51.86988 -176.64486 22 ft 3 kts 138°
2026-04-29 16:38 51.86967 -176.64357 22 ft 13 kts 103°
2026-04-29 16:38 51.86926 -176.64232 22 ft 12 kts 166°
2026-04-29 16:38 51.86878 -176.64205 22 ft 7 kts 33°
2026-04-29 16:38 51.86891 -176.64205 22 ft 0 kts 345°